Time,TemperatureF,DewpointF,PressureIn,WindDirection,WindDirectionDegrees,WindSpeedMPH,WindSpeedGustMPH,Humidity,HourlyPrecipIn,Conditions,Clouds,dailyrainin,SoftwareType,DateUTC
2013-11-08 00:02:00,36.0,35.2,29.73,WNW,293,0.0,2.7,97,0.00,,---,0.00,VWS V14.01,2013-11-08 07:02:00,
2013-11-08 00:07:00,36.1,35.4,29.73,SE,130,0.0,0.0,97,0.00,,---,0.00,VWS V14.01,2013-11-08 07:07:00,
2013-11-08 00:12:00,36.1,35.4,29.73,ENE,57,4.9,4.9,97,0.00,,---,0.00,VWS V14.01,2013-11-08 07:12:00,
2013-11-08 00:17:00,36.1,35.4,29.73,SSW,211,0.0,0.0,97,0.00,,---,0.00,VWS V14.01,2013-11-08 07:17:00,
2013-11-08 00:22:00,36.1,35.1,29.73,SSW,212,2.7,8.1,96,0.00,,---,0.00,VWS V14.01,2013-11-08 07:22:00,
2013-11-08 00:27:00,36.1,35.1,29.73,ESE,112,2.7,2.7,96,0.00,,---,0.00,VWS V14.01,2013-11-08 07:27:00,
2013-11-08 00:32:00,36.3,35.3,29.73,SW,216,3.1,3.1,96,0.00,,---,0.00,VWS V14.01,2013-11-08 07:32:00,
2013-11-08 00:37:00,36.3,35.0,29.73,SE,140,6.3,7.6,95,0.00,,---,0.00,VWS V14.01,2013-11-08 07:37:00,
2013-11-08 00:42:00,36.1,34.8,29.73,NE,36,3.6,3.6,95,0.00,,---,0.00,VWS V14.01,2013-11-08 07:42:00,
2013-11-08 00:47:00,36.1,34.6,29.73,SSW,203,3.6,5.8,94,0.00,,---,0.00,VWS V14.01,2013-11-08 07:47:00,
2013-11-08 00:52:00,36.1,34.6,29.73,East,98,2.2,3.6,94,0.00,,---,0.00,VWS V14.01,2013-11-08 07:52:00,
2013-11-08 00:57:00,36.3,34.8,29.73,WNW,284,0.0,0.0,94,0.00,,---,0.00,VWS V14.01,2013-11-08 07:57:00,
2013-11-08 01:02:00,36.5,34.7,29.73,West,271,0.0,2.7,93,0.00,,---,0.00,VWS V14.01,2013-11-08 08:02:00,
2013-11-08 01:07:00,36.7,34.8,29.73,South,182,0.0,0.0,93,0.00,,---,0.00,VWS V14.01,2013-11-08 08:07:00,
2013-11-08 01:12:00,36.9,34.8,29.73,ENE,70,0.0,0.0,92,0.00,,---,0.00,VWS V14.01,2013-11-08 08:12:00,
2013-11-08 01:17:00,36.9,34.8,29.73,SSW,211,3.1,3.1,92,0.00,,---,0.00,VWS V14.01,2013-11-08 08:17:00,
2013-11-08 01:22:00,36.9,34.5,29.73,WNW,282,0.0,4.9,91,0.00,,---,0.00,VWS V14.01,2013-11-08 08:22:00,
2013-11-08 01:27:00,37.0,34.4,29.73,WNW,298,2.7,7.6,90,0.00,,---,0.00,VWS V14.01,2013-11-08 08:27:00,
2013-11-08 01:32:00,37.2,34.3,29.76,NE,51,0.0,3.1,89,0.00,,---,0.00,VWS V14.01,2013-11-08 08:32:00,
2013-11-08 01:37:00,37.4,34.2,29.76,SW,219,5.4,6.3,88,0.00,,---,0.00,VWS V14.01,2013-11-08 08:37:00,
2013-11-08 01:42:00,37.4,34.2,29.76,South,189,3.6,3.6,88,0.00,,---,0.00,VWS V14.01,2013-11-08 08:42:00,
2013-11-08 01:47:00,37.4,33.9,29.76,East,89,2.7,2.7,87,0.00,,---,0.00,VWS V14.01,2013-11-08 08:47:00,
2013-11-08 01:52:00,37.4,33.9,29.76,WNW,284,0.0,0.0,87,0.00,,---,0.00,VWS V14.01,2013-11-08 08:52:00,
2013-11-08 01:57:00,37.4,33.6,29.76,West,278,2.7,2.7,86,0.00,,---,0.00,VWS V14.01,2013-11-08 08:57:00,
2013-11-08 02:02:00,37.6,33.8,29.76,East,88,3.6,3.6,86,0.00,,---,0.00,VWS V14.01,2013-11-08 09:02:00,
2013-11-08 02:07:00,37.8,33.7,29.76,North,353,0.0,2.7,85,0.00,,---,0.00,VWS V14.01,2013-11-08 09:07:00,
2013-11-08 02:12:00,37.8,33.7,29.76,NE,44,0.0,0.0,85,0.00,,---,0.00,VWS V14.01,2013-11-08 09:12:00,
2013-11-08 02:17:00,37.8,33.4,29.76,North,350,8.7,9.6,84,0.00,,---,0.00,VWS V14.01,2013-11-08 09:17:00,
2013-11-08 02:22:00,37.9,33.2,29.76,NW,324,2.7,3.1,83,0.00,,---,0.00,VWS V14.01,2013-11-08 09:22:00,
2013-11-08 02:27:00,38.1,33.1,29.76,WSW,248,3.6,4.0,82,0.00,,---,0.00,VWS V14.01,2013-11-08 09:27:00,
2013-11-08 02:32:00,38.1,32.8,29.76,WSW,241,0.0,0.0,81,0.00,,---,0.00,VWS V14.01,2013-11-08 09:32:00,
2013-11-08 02:37:00,38.1,32.8,29.76,ESE,111,0.0,2.2,81,0.00,,---,0.00,VWS V14.01,2013-11-08 09:37:00,
2013-11-08 02:42:00,37.9,32.3,29.76,WNW,289,4.0,4.0,80,0.00,,---,0.00,VWS V14.01,2013-11-08 09:42:00,
2013-11-08 02:47:00,37.8,32.2,29.76,SE,140,2.7,3.1,80,0.00,,---,0.00,VWS V14.01,2013-11-08 09:47:00,
2013-11-08 02:52:00,37.6,32.0,29.76,SW,214,3.6,3.6,80,0.00,,---,0.00,VWS V14.01,2013-11-08 09:52:00,
2013-11-08 02:57:00,37.4,31.8,29.76,West,278,5.4,5.8,80,0.00,,---,0.00,VWS V14.01,2013-11-08 09:57:00,
2013-11-08 03:02:00,37.4,31.8,29.76,ENE,65,4.0,4.0,80,0.00,,---,0.00,VWS V14.01,2013-11-08 10:02:00,
2013-11-08 03:07:00,37.6,31.7,29.76,SW,224,4.0,4.0,79,0.00,,---,0.00,VWS V14.01,2013-11-08 10:07:00,
2013-11-08 03:12:00,37.6,31.7,29.76,WNW,282,0.0,2.2,79,0.00,,---,0.00,VWS V14.01,2013-11-08 10:12:00,
2013-11-08 03:17:00,37.8,31.5,29.79,SE,134,4.0,4.9,78,0.00,,---,0.00,VWS V14.01,2013-11-08 10:17:00,
2013-11-08 03:22:00,37.8,31.5,29.79,SW,235,0.0,0.0,78,0.00,,---,0.00,VWS V14.01,2013-11-08 10:22:00,
2013-11-08 03:28:00,37.6,31.4,29.79,East,89,0.0,0.0,78,0.00,,---,0.00,VWS V14.01,2013-11-08 10:28:00,
2013-11-08 03:33:00,37.8,31.5,29.79,SW,233,0.0,0.0,78,0.00,,---,0.00,VWS V14.01,2013-11-08 10:33:00,
2013-11-08 03:38:00,37.8,31.5,29.79,ESE,115,0.0,0.0,78,0.00,,---,0.00,VWS V14.01,2013-11-08 10:38:00,
2013-11-08 03:43:00,37.6,31.4,29.79,NE,36,3.1,4.9,78,0.00,,---,0.00,VWS V14.01,2013-11-08 10:43:00,
2013-11-08 03:48:00,37.6,31.4,29.79,SW,232,4.0,4.0,78,0.00,,---,0.00,VWS V14.01,2013-11-08 10:48:00,
2013-11-08 03:53:00,37.4,31.2,29.79,SE,137,0.0,0.0,78,0.00,,---,0.00,VWS V14.01,2013-11-08 10:53:00,
2013-11-08 03:58:00,37.4,31.2,29.76,SW,223,0.0,0.0,78,0.00,,---,0.00,VWS V14.01,2013-11-08 10:58:00,
2013-11-08 04:03:00,37.0,31.1,29.76,East,80,4.0,4.0,79,0.00,,---,0.00,VWS V14.01,2013-11-08 11:03:00,
2013-11-08 04:08:00,37.0,31.1,29.76,SSW,209,0.0,0.0,79,0.00,,---,0.00,VWS V14.01,2013-11-08 11:08:00,
2013-11-08 04:13:00,36.9,31.0,29.79,East,97,2.7,3.6,79,0.00,,---,0.00,VWS V14.01,2013-11-08 11:13:00,
2013-11-08 04:18:00,36.9,31.0,29.79,ENE,68,3.6,3.6,79,0.00,,---,0.00,VWS V14.01,2013-11-08 11:18:00,
2013-11-08 04:23:00,37.0,31.1,29.79,ESE,117,6.3,6.3,79,0.00,,---,0.00,VWS V14.01,2013-11-08 11:23:00,
2013-11-08 04:28:00,37.4,31.2,29.79,West,270,0.0,0.0,78,0.00,,---,0.00,VWS V14.01,2013-11-08 11:28:00,
2013-11-08 04:33:00,37.4,31.2,29.79,WSW,253,0.0,0.0,78,0.00,,---,0.00,VWS V14.01,2013-11-08 11:33:00,
2013-11-08 04:38:00,37.2,31.0,29.79,SE,133,0.0,0.0,78,0.00,,---,0.00,VWS V14.01,2013-11-08 11:38:00,
2013-11-08 04:43:00,37.0,31.1,29.79,East,91,0.0,0.0,79,0.00,,---,0.00,VWS V14.01,2013-11-08 11:43:00,
2013-11-08 04:48:00,36.9,31.0,29.79,ENE,62,0.0,0.0,79,0.00,,---,0.00,VWS V14.01,2013-11-08 11:48:00,
2013-11-08 04:53:00,36.9,31.0,29.79,NW,306,2.7,2.7,79,0.00,,---,0.00,VWS V14.01,2013-11-08 11:53:00,
2013-11-08 04:58:00,36.9,30.6,29.79,SSW,210,0.0,0.0,78,0.00,,---,0.00,VWS V14.01,2013-11-08 11:58:00,
2013-11-08 05:03:00,37.0,30.8,29.79,SW,236,0.0,5.4,78,0.00,,---,0.00,VWS V14.01,2013-11-08 12:03:00,
2013-11-08 05:08:00,37.2,31.0,29.79,South,190,2.2,2.7,78,0.00,,---,0.00,VWS V14.01,2013-11-08 12:08:00,
2013-11-08 05:13:00,37.0,30.8,29.79,SSW,198,0.0,2.2,78,0.00,,---,0.00,VWS V14.01,2013-11-08 12:13:00,
2013-11-08 05:18:00,37.0,30.8,29.79,NNE,30,0.0,0.0,78,0.00,,---,0.00,VWS V14.01,2013-11-08 12:18:00,
2013-11-08 05:23:00,36.9,30.6,29.79,South,190,0.0,0.0,78,0.00,,---,0.00,VWS V14.01,2013-11-08 12:23:00,
2013-11-08 05:28:00,36.7,30.5,29.79,East,81,0.0,0.0,78,0.00,,---,0.00,VWS V14.01,2013-11-08 12:28:00,
2013-11-08 05:33:00,36.7,30.5,29.79,NNE,30,0.0,0.0,78,0.00,,---,0.00,VWS V14.01,2013-11-08 12:33:00,
2013-11-08 05:38:00,36.9,30.6,29.79,NNW,331,0.0,0.0,78,0.00,,---,0.00,VWS V14.01,2013-11-08 12:38:00,
2013-11-08 05:43:00,36.9,31.0,29.82,SE,133,0.0,0.0,79,0.00,,---,0.00,VWS V14.01,2013-11-08 12:43:00,
2013-11-08 05:48:00,36.7,30.8,29.82,South,169,0.0,0.0,79,0.00,,---,0.00,VWS V14.01,2013-11-08 12:48:00,
2013-11-08 05:54:00,36.7,30.8,29.82,East,85,0.0,0.0,79,0.00,,---,0.00,VWS V14.01,2013-11-08 12:54:00,
2013-11-08 05:59:00,36.5,30.9,29.79,ESE,116,0.0,2.2,80,0.00,,---,0.00,VWS V14.01,2013-11-08 12:59:00,
2013-11-08 06:04:00,36.5,30.9,29.79,South,173,0.0,0.0,80,0.00,,---,0.00,VWS V14.01,2013-11-08 13:04:00,
2013-11-08 06:09:00,36.3,31.1,29.79,ESE,118,0.0,0.0,81,0.00,,---,0.00,VWS V14.01,2013-11-08 13:09:00,
2013-11-08 06:14:00,36.5,31.2,29.82,ESE,114,0.0,0.0,81,0.00,,---,0.00,VWS V14.01,2013-11-08 13:14:00,
2013-11-08 06:19:00,36.5,31.2,29.82,SW,234,0.0,0.0,81,0.00,,---,0.00,VWS V14.01,2013-11-08 13:19:00,
2013-11-08 06:24:00,36.5,31.2,29.82,NNE,24,0.0,2.7,81,0.00,,---,0.00,VWS V14.01,2013-11-08 13:24:00,
2013-11-08 06:29:00,36.7,31.4,29.82,West,265,0.0,4.0,81,0.00,,---,0.00,VWS V14.01,2013-11-08 13:29:00,
2013-11-08 06:34:00,36.7,31.7,29.82,SE,130,0.0,0.0,82,0.00,,---,0.00,VWS V14.01,2013-11-08 13:34:00,
2013-11-08 06:39:00,36.7,31.7,29.82,SE,130,0.0,0.0,82,0.00,,---,0.00,VWS V14.01,2013-11-08 13:39:00,
2013-11-08 06:44:00,36.5,31.5,29.82,SW,229,6.3,6.3,82,0.00,,---,0.00,VWS V14.01,2013-11-08 13:44:00,
2013-11-08 06:49:00,36.5,31.5,29.82,SSW,199,0.0,0.0,82,0.00,,---,0.00,VWS V14.01,2013-11-08 13:49:00,
2013-11-08 06:54:00,36.7,31.7,29.82,SE,127,0.0,0.0,82,0.00,,---,0.00,VWS V14.01,2013-11-08 13:54:00,
2013-11-08 06:59:00,36.7,31.7,29.82,SE,127,0.0,0.0,82,0.00,,---,0.00,VWS V14.01,2013-11-08 13:59:00,
2013-11-08 07:04:00,36.7,31.7,29.82,SE,127,0.0,0.0,82,0.00,,---,0.00,VWS V14.01,2013-11-08 14:04:00,
2013-11-08 07:09:00,36.5,31.8,29.82,SE,140,2.7,2.7,83,0.00,,---,0.00,VWS V14.01,2013-11-08 14:09:00,
2013-11-08 07:14:00,36.3,31.7,29.82,SE,140,0.0,0.0,83,0.00,,---,0.00,VWS V14.01,2013-11-08 14:14:00,
2013-11-08 07:19:00,36.1,31.5,29.82,SE,140,0.0,0.0,83,0.00,,---,0.00,VWS V14.01,2013-11-08 14:19:00,
2013-11-08 07:24:00,36.1,31.5,29.82,SE,140,0.0,0.0,83,0.00,,---,0.00,VWS V14.01,2013-11-08 14:24:00,
2013-11-08 07:29:00,36.0,31.6,29.82,SE,140,0.0,0.0,84,0.00,,---,0.00,VWS V14.01,2013-11-08 14:29:00,
2013-11-08 07:34:00,36.0,31.6,29.82,NW,320,0.0,0.0,84,0.00,,---,0.00,VWS V14.01,2013-11-08 14:34:00,
2013-11-08 07:39:00,36.1,31.8,29.82,ENE,58,0.0,0.0,84,0.00,,---,0.00,VWS V14.01,2013-11-08 14:39:00,
2013-11-08 07:44:00,36.1,31.8,29.82,South,188,0.0,3.1,84,0.00,,---,0.00,VWS V14.01,2013-11-08 14:44:00,
2013-11-08 07:49:00,36.3,32.2,29.82,ESE,114,0.0,0.0,85,0.00,,---,0.00,VWS V14.01,2013-11-08 14:49:00,
2013-11-08 07:54:00,36.3,32.2,29.82,NE,37,0.0,0.0,85,0.00,,---,0.00,VWS V14.01,2013-11-08 14:54:00,
2013-11-08 07:59:00,36.3,32.2,29.82,ESE,108,0.0,3.1,85,0.00,,---,0.00,VWS V14.01,2013-11-08 14:59:00,
2013-11-08 08:04:00,36.3,32.2,29.82,SE,126,0.0,0.0,85,0.00,,---,0.00,VWS V14.01,2013-11-08 15:04:00,
2013-11-08 08:09:00,36.1,32.1,29.82,ESE,120,0.0,0.0,85,0.00,,---,0.00,VWS V14.01,2013-11-08 15:09:00,
2013-11-08 08:15:00,36.1,32.1,29.82,ESE,120,0.0,0.0,85,0.00,,---,0.00,VWS V14.01,2013-11-08 15:15:00,
2013-11-08 08:20:00,36.1,32.1,29.82,ESE,120,0.0,0.0,85,0.00,,---,0.00,VWS V14.01,2013-11-08 15:20:00,
2013-11-08 08:25:00,36.1,32.4,29.82,ESE,108,0.0,0.0,86,0.00,,---,0.00,VWS V14.01,2013-11-08 15:25:00,
2013-11-08 08:30:00,36.1,32.4,29.82,SE,125,0.0,0.0,86,0.00,,---,0.00,VWS V14.01,2013-11-08 15:30:00,
2013-11-08 08:35:00,36.1,32.4,29.82,SSE,163,0.0,2.7,86,0.00,,---,0.00,VWS V14.01,2013-11-08 15:35:00,
2013-11-08 08:40:00,36.3,32.8,29.82,NE,34,0.0,0.0,87,0.00,,---,0.00,VWS V14.01,2013-11-08 15:40:00,
2013-11-08 08:45:00,36.3,32.8,29.82,North,7,0.0,0.0,87,0.00,,---,0.00,VWS V14.01,2013-11-08 15:45:00,
2013-11-08 08:50:00,36.5,33.0,29.82,West,264,0.0,2.7,87,0.00,,---,0.00,VWS V14.01,2013-11-08 15:50:00,
2013-11-08 08:55:00,36.7,33.2,29.82,West,264,0.0,0.0,87,0.00,,---,0.00,VWS V14.01,2013-11-08 15:55:00,
2013-11-08 09:00:00,36.7,33.2,29.85,SW,227,0.0,0.0,87,0.00,,---,0.00,VWS V14.01,2013-11-08 16:00:00,
2013-11-08 09:05:00,36.7,33.5,29.85,SE,142,0.0,0.0,88,0.00,,---,0.00,VWS V14.01,2013-11-08 16:05:00,
2013-11-08 09:10:00,36.7,33.5,29.85,ESE,104,0.0,0.0,88,0.00,,---,0.00,VWS V14.01,2013-11-08 16:10:00,
2013-11-08 09:15:00,36.9,33.7,29.85,SSE,162,0.0,0.0,88,0.00,,---,0.00,VWS V14.01,2013-11-08 16:15:00,
2013-11-08 09:20:00,37.0,33.8,29.85,ENE,77,3.1,3.1,88,0.00,,---,0.00,VWS V14.01,2013-11-08 16:20:00,
2013-11-08 09:25:00,37.0,33.8,29.85,NE,56,0.0,0.0,88,0.00,,---,0.00,VWS V14.01,2013-11-08 16:25:00,
2013-11-08 09:30:00,37.4,34.2,29.82,East,91,0.0,0.0,88,0.00,,---,0.00,VWS V14.01,2013-11-08 16:30:00,
2013-11-08 09:35:00,37.6,34.3,29.82,East,82,0.0,0.0,88,0.00,,---,0.00,VWS V14.01,2013-11-08 16:35:00,
2013-11-08 09:40:00,37.8,34.5,29.82,ESE,119,0.0,0.0,88,0.00,,---,0.00,VWS V14.01,2013-11-08 16:40:00,
2013-11-08 09:45:00,37.9,34.7,29.85,WSW,249,0.0,0.0,88,0.00,,---,0.00,VWS V14.01,2013-11-08 16:45:00,
2013-11-08 09:50:00,38.1,34.6,29.85,WSW,249,0.0,0.0,87,0.00,,---,0.00,VWS V14.01,2013-11-08 16:50:00,
2013-11-08 09:55:00,38.3,34.8,29.85,WSW,249,0.0,0.0,87,0.00,,---,0.00,VWS V14.01,2013-11-08 16:55:00,
2013-11-08 10:00:00,38.5,35.0,29.85,NE,47,0.0,0.0,87,0.00,,---,0.00,VWS V14.01,2013-11-08 17:00:00,
2013-11-08 10:05:00,38.7,35.1,29.85,NW,310,0.0,0.0,87,0.00,,---,0.00,VWS V14.01,2013-11-08 17:05:00,
2013-11-08 10:10:00,38.7,34.8,29.85,NNE,29,0.0,0.0,86,0.00,,---,0.00,VWS V14.01,2013-11-08 17:10:00,
2013-11-08 10:15:00,38.8,35.0,29.85,South,179,0.0,0.0,86,0.00,,---,0.00,VWS V14.01,2013-11-08 17:15:00,
2013-11-08 10:20:00,39.0,34.9,29.85,NE,42,0.0,0.0,85,0.00,,---,0.00,VWS V14.01,2013-11-08 17:20:00,
2013-11-08 10:25:00,39.2,34.8,29.85,East,98,0.0,2.2,84,0.00,,---,0.00,VWS V14.01,2013-11-08 17:25:00,
2013-11-08 10:30:00,39.4,35.0,29.85,SSW,212,0.0,0.0,84,0.00,,---,0.00,VWS V14.01,2013-11-08 17:30:00,
2013-11-08 10:35:00,39.7,35.3,29.85,NE,43,0.0,3.6,84,0.00,,---,0.00,VWS V14.01,2013-11-08 17:35:00,
2013-11-08 10:40:00,39.9,35.2,29.85,East,82,0.0,0.0,83,0.00,,---,0.00,VWS V14.01,2013-11-08 17:40:00,
2013-11-08 10:45:00,40.3,35.5,29.85,ENE,68,0.0,0.0,83,0.00,,---,0.00,VWS V14.01,2013-11-08 17:45:00,
2013-11-08 10:50:00,40.6,35.6,29.85,SSW,202,4.0,4.0,82,0.00,,---,0.00,VWS V14.01,2013-11-08 17:50:00,
2013-11-08 10:55:00,40.8,35.1,29.85,SSW,206,3.1,3.1,80,0.00,,---,0.00,VWS V14.01,2013-11-08 17:55:00,
2013-11-08 11:00:00,41.2,35.2,29.85,SW,224,3.1,3.1,79,0.00,,---,0.00,VWS V14.01,2013-11-08 18:00:00,
2013-11-08 11:05:00,41.5,34.9,29.85,ESE,108,0.0,0.0,77,0.00,,---,0.00,VWS V14.01,2013-11-08 18:05:00,
2013-11-08 11:10:00,41.9,34.9,29.85,West,278,0.0,0.0,76,0.00,,---,0.00,VWS V14.01,2013-11-08 18:10:00,
2013-11-08 11:16:00,42.4,35.1,29.85,North,0,0.0,3.1,75,0.00,,---,0.00,VWS V14.01,2013-11-08 18:16:00,
2013-11-08 11:21:00,43.2,35.1,29.85,NW,325,0.0,3.1,73,0.00,,---,0.00,VWS V14.01,2013-11-08 18:21:00,
2013-11-08 11:26:00,43.7,34.9,29.85,WNW,296,0.0,3.6,71,0.00,,---,0.00,VWS V14.01,2013-11-08 18:26:00,
2013-11-08 11:31:00,44.1,34.9,29.85,WNW,287,0.0,3.6,70,0.00,,---,0.00,VWS V14.01,2013-11-08 18:31:00,
2013-11-08 11:36:00,44.2,34.7,29.85,SSE,159,2.2,5.8,69,0.00,,---,0.00,VWS V14.01,2013-11-08 18:36:00,
2013-11-08 11:41:00,44.1,33.8,29.85,NNE,19,2.2,3.1,67,0.00,,---,0.00,VWS V14.01,2013-11-08 18:41:00,
2013-11-08 11:46:00,43.9,33.3,29.85,SSE,168,3.1,3.6,66,0.00,,---,0.00,VWS V14.01,2013-11-08 18:46:00,
2013-11-08 11:51:00,43.7,32.7,29.85,SSW,196,5.8,8.3,65,0.00,,---,0.00,VWS V14.01,2013-11-08 18:51:00,
2013-11-08 11:56:00,43.5,32.5,29.85,WNW,287,2.7,3.1,65,0.00,,---,0.00,VWS V14.01,2013-11-08 18:56:00,
2013-11-08 12:01:00,43.3,32.0,29.85,NW,316,2.2,3.1,64,0.00,,---,0.00,VWS V14.01,2013-11-08 19:01:00,
2013-11-08 12:06:00,43.5,32.2,29.85,West,267,0.0,3.1,64,0.00,,---,0.00,VWS V14.01,2013-11-08 19:06:00,
2013-11-08 12:11:00,43.3,32.0,29.85,WSW,245,0.0,0.0,64,0.00,,---,0.00,VWS V14.01,2013-11-08 19:11:00,
2013-11-08 12:16:00,43.3,32.0,29.85,SSW,195,0.0,0.0,64,0.00,,---,0.00,VWS V14.01,2013-11-08 19:16:00,
2013-11-08 12:21:00,43.5,32.2,29.85,SW,214,0.0,0.0,64,0.00,,---,0.00,VWS V14.01,2013-11-08 19:21:00,
2013-11-08 12:26:00,43.5,31.8,29.85,South,190,4.0,4.0,63,0.00,,---,0.00,VWS V14.01,2013-11-08 19:26:00,
2013-11-08 12:31:00,43.5,31.8,29.85,SW,220,0.0,0.0,63,0.00,,---,0.00,VWS V14.01,2013-11-08 19:31:00,
2013-11-08 12:36:00,43.3,31.6,29.85,North,9,0.0,0.0,63,0.00,,---,0.00,VWS V14.01,2013-11-08 19:36:00,
2013-11-08 12:41:00,43.0,30.5,29.85,NW,306,4.0,5.4,61,0.00,,---,0.00,VWS V14.01,2013-11-08 19:41:00,
2013-11-08 12:46:00,42.8,30.3,29.85,SSW,198,2.7,2.7,61,0.00,,---,0.00,VWS V14.01,2013-11-08 19:46:00,
2013-11-08 12:51:00,42.8,29.9,29.85,ENE,70,2.2,4.0,60,0.00,,---,0.00,VWS V14.01,2013-11-08 19:51:00,
2013-11-08 12:56:00,42.6,30.1,29.85,WSW,258,0.0,2.2,61,0.00,,---,0.00,VWS V14.01,2013-11-08 19:56:00,
2013-11-08 13:01:00,42.6,30.1,29.85,South,184,3.1,3.1,61,0.00,,---,0.00,VWS V14.01,2013-11-08 20:01:00,
2013-11-08 13:06:00,42.6,30.1,29.85,South,183,2.2,2.2,61,0.00,,---,0.00,VWS V14.01,2013-11-08 20:06:00,
2013-11-08 13:11:00,42.4,30.0,29.85,WNW,288,2.7,3.6,61,0.00,,---,0.00,VWS V14.01,2013-11-08 20:11:00,
2013-11-08 13:16:00,42.3,29.8,29.85,West,264,3.1,3.1,61,0.00,,---,0.00,VWS V14.01,2013-11-08 20:16:00,
2013-11-08 13:21:00,42.1,29.6,29.85,SW,223,5.4,5.4,61,0.00,,---,0.00,VWS V14.01,2013-11-08 20:21:00,
2013-11-08 13:26:00,42.1,29.6,29.85,SW,217,2.7,2.7,61,0.00,,---,0.00,VWS V14.01,2013-11-08 20:26:00,
2013-11-08 13:31:00,42.1,29.6,29.85,SSE,153,3.1,3.1,61,0.00,,---,0.00,VWS V14.01,2013-11-08 20:31:00,
2013-11-08 13:36:00,42.1,29.6,29.85,ESE,105,2.7,3.1,61,0.00,,---,0.00,VWS V14.01,2013-11-08 20:36:00,
2013-11-08 13:41:00,41.9,29.5,29.85,SSE,150,3.6,3.6,61,0.00,,---,0.00,VWS V14.01,2013-11-08 20:41:00,
2013-11-08 13:47:00,41.7,29.7,29.85,South,178,3.1,3.6,62,0.00,,---,0.00,VWS V14.01,2013-11-08 20:47:00,
2013-11-08 13:51:00,41.5,29.1,29.85,NNE,28,4.9,4.9,61,0.00,,---,0.00,VWS V14.01,2013-11-08 20:51:00,
2013-11-08 13:56:00,41.5,29.5,29.85,WSW,251,0.0,0.0,62,0.00,,---,0.00,VWS V14.01,2013-11-08 20:56:00,
2013-11-08 14:01:00,41.4,29.7,29.85,West,276,0.0,2.2,63,0.00,,---,0.00,VWS V14.01,2013-11-08 21:01:00,
2013-11-08 14:06:00,41.4,29.7,29.85,ESE,115,4.9,5.4,63,0.00,,---,0.00,VWS V14.01,2013-11-08 21:06:00,
2013-11-08 14:11:00,41.2,29.6,29.85,WSW,254,4.0,5.4,63,0.00,,---,0.00,VWS V14.01,2013-11-08 21:11:00,
2013-11-08 14:16:00,41.0,29.8,29.85,ESE,106,3.6,3.6,64,0.00,,---,0.00,VWS V14.01,2013-11-08 21:16:00,
2013-11-08 14:21:00,40.8,30.0,29.85,South,190,7.6,7.6,65,0.00,,---,0.00,VWS V14.01,2013-11-08 21:21:00,
2013-11-08 14:26:00,40.6,29.8,29.85,WSW,241,2.2,3.6,65,0.00,,---,0.00,VWS V14.01,2013-11-08 21:26:00,
2013-11-08 14:31:00,40.5,29.6,29.85,NNE,33,3.6,3.6,65,0.00,,---,0.00,VWS V14.01,2013-11-08 21:31:00,
2013-11-08 14:36:00,40.5,29.6,29.85,North,357,0.0,3.6,65,0.00,,---,0.00,VWS V14.01,2013-11-08 21:36:00,
2013-11-08 14:41:00,40.3,29.8,29.85,SSE,152,0.0,0.0,66,0.00,,---,0.00,VWS V14.01,2013-11-08 21:41:00,
2013-11-08 14:47:00,40.3,29.8,29.88,SSW,205,2.7,3.6,66,0.00,,---,0.00,VWS V14.01,2013-11-08 21:47:00,
2013-11-08 14:52:00,40.3,29.8,29.88,SW,223,0.0,3.6,66,0.00,,---,0.00,VWS V14.01,2013-11-08 21:52:00,
2013-11-08 14:57:00,40.3,29.8,29.88,North,357,0.0,3.6,66,0.00,,---,0.00,VWS V14.01,2013-11-08 21:57:00,
2013-11-08 15:02:00,40.3,29.5,29.88,NW,308,0.0,6.3,65,0.00,,---,0.00,VWS V14.01,2013-11-08 22:02:00,
2013-11-08 15:07:00,40.3,29.5,29.88,SW,227,4.0,4.0,65,0.00,,---,0.00,VWS V14.01,2013-11-08 22:07:00,
2013-11-08 15:12:00,40.1,29.3,29.88,South,175,2.2,2.2,65,0.00,,---,0.00,VWS V14.01,2013-11-08 22:12:00,
2013-11-08 15:17:00,40.1,29.7,29.88,West,269,0.0,4.0,66,0.00,,---,0.00,VWS V14.01,2013-11-08 22:17:00,
2013-11-08 15:22:00,40.1,29.7,29.88,SSE,155,6.3,6.3,66,0.00,,---,0.00,VWS V14.01,2013-11-08 22:22:00,
2013-11-08 15:27:00,39.9,29.5,29.88,SW,214,2.2,2.7,66,0.00,,---,0.00,VWS V14.01,2013-11-08 22:27:00,
2013-11-08 15:32:00,39.9,29.1,29.88,West,263,5.8,5.8,65,0.00,,---,0.00,VWS V14.01,2013-11-08 22:32:00,
2013-11-08 15:37:00,39.7,29.3,29.88,NE,55,4.0,4.0,66,0.00,,---,0.00,VWS V14.01,2013-11-08 22:37:00,
2013-11-08 15:42:00,39.7,29.3,29.88,West,268,2.7,5.4,66,0.00,,---,0.00,VWS V14.01,2013-11-08 22:42:00,
2013-11-08 15:47:00,39.7,29.0,29.88,SW,221,2.2,2.7,65,0.00,,---,0.00,VWS V14.01,2013-11-08 22:47:00,
2013-11-08 15:52:00,39.9,29.1,29.88,SW,234,0.0,3.6,65,0.00,,---,0.00,VWS V14.01,2013-11-08 22:52:00,
2013-11-08 15:57:00,39.9,29.1,29.88,West,280,0.0,4.0,65,0.00,,---,0.00,VWS V14.01,2013-11-08 22:57:00,
2013-11-08 16:02:00,39.9,28.8,29.88,NW,318,2.7,3.1,64,0.00,,---,0.00,VWS V14.01,2013-11-08 23:02:00,
2013-11-08 16:07:00,39.7,28.6,29.88,SW,217,5.8,6.3,64,0.00,,---,0.00,VWS V14.01,2013-11-08 23:07:00,
2013-11-08 16:12:00,39.6,28.4,29.88,WNW,290,2.2,4.0,64,0.00,,---,0.00,VWS V14.01,2013-11-08 23:12:00,
2013-11-08 16:17:00,39.6,28.0,29.88,WSW,250,0.0,0.0,63,0.00,,---,0.00,VWS V14.01,2013-11-08 23:17:00,
2013-11-08 16:22:00,39.6,27.6,29.88,West,272,3.6,6.3,62,0.00,,---,0.00,VWS V14.01,2013-11-08 23:22:00,
2013-11-08 16:27:00,39.4,27.5,29.88,NE,48,0.0,5.4,62,0.00,,---,0.00,VWS V14.01,2013-11-08 23:27:00,
2013-11-08 16:32:00,39.4,27.1,29.91,SSW,192,3.1,3.1,61,0.00,,---,0.00,VWS V14.01,2013-11-08 23:32:00,
2013-11-08 16:37:00,39.4,27.1,29.91,West,274,4.0,4.0,61,0.00,,---,0.00,VWS V14.01,2013-11-08 23:37:00,
2013-11-08 16:42:00,39.2,26.5,29.91,SSW,208,6.3,6.3,60,0.00,,---,0.00,VWS V14.01,2013-11-08 23:42:00,
2013-11-08 16:47:00,39.4,26.3,29.91,SW,233,3.6,3.6,59,0.00,,---,0.00,VWS V14.01,2013-11-08 23:47:00,
2013-11-08 16:52:00,39.4,25.9,29.91,SW,234,4.0,4.0,58,0.00,,---,0.00,VWS V14.01,2013-11-08 23:52:00,
2013-11-08 16:57:00,39.2,25.3,29.91,WNW,302,3.1,5.4,57,0.00,,---,0.00,VWS V14.01,2013-11-08 23:57:00,
2013-11-08 17:02:00,39.4,25.4,29.91,North,357,2.7,3.6,57,0.00,,---,0.00,VWS V14.01,2013-11-09 00:02:00,
2013-11-08 17:07:00,39.4,25.0,29.91,WNW,291,5.4,8.1,56,0.00,,---,0.00,VWS V14.01,2013-11-09 00:07:00,
2013-11-08 17:12:00,39.4,24.6,29.91,NNE,19,2.7,2.7,55,0.00,,---,0.00,VWS V14.01,2013-11-09 00:12:00,
2013-11-08 17:17:00,39.4,24.6,29.91,NE,36,8.1,8.1,55,0.00,,---,0.00,VWS V14.01,2013-11-09 00:17:00,
2013-11-08 17:22:00,39.4,24.1,29.91,NNE,29,3.6,5.8,54,0.00,,---,0.00,VWS V14.01,2013-11-09 00:22:00,
2013-11-08 17:27:00,39.2,24.0,29.91,South,173,0.0,2.2,54,0.00,,---,0.00,VWS V14.01,2013-11-09 00:27:00,
2013-11-08 17:32:00,39.0,24.2,29.91,WNW,294,2.2,2.7,55,0.00,,---,0.00,VWS V14.01,2013-11-09 00:32:00,
2013-11-08 17:37:00,38.8,24.1,29.91,West,270,4.9,4.9,55,0.00,,---,0.00,VWS V14.01,2013-11-09 00:37:00,
2013-11-08 17:42:00,38.8,24.1,29.91,NW,326,0.0,4.0,55,0.00,,---,0.00,VWS V14.01,2013-11-09 00:42:00,
2013-11-08 17:47:00,39.0,24.2,29.94,West,272,4.9,4.9,55,0.00,,---,0.00,VWS V14.01,2013-11-09 00:47:00,
2013-11-08 17:52:00,38.8,24.5,29.94,North,350,0.0,2.7,56,0.00,,---,0.00,VWS V14.01,2013-11-09 00:52:00,
2013-11-08 17:57:00,38.7,24.3,29.94,North,357,0.0,2.2,56,0.00,,---,0.00,VWS V14.01,2013-11-09 00:57:00,
2013-11-08 18:02:00,38.7,24.3,29.94,SE,127,0.0,0.0,56,0.00,,---,0.00,VWS V14.01,2013-11-09 01:02:00,
2013-11-08 18:07:00,38.7,24.8,29.94,WNW,288,0.0,0.0,57,0.00,,---,0.00,VWS V14.01,2013-11-09 01:07:00,
2013-11-08 18:12:00,38.5,24.6,29.94,SW,223,2.7,2.7,57,0.00,,---,0.00,VWS V14.01,2013-11-09 01:12:00,
2013-11-08 18:17:00,38.3,24.4,29.94,South,169,4.0,4.0,57,0.00,,---,0.00,VWS V14.01,2013-11-09 01:17:00,
2013-11-08 18:22:00,38.1,23.8,29.94,NNE,32,3.1,3.1,56,0.00,,---,0.00,VWS V14.01,2013-11-09 01:22:00,
2013-11-08 18:27:00,37.9,24.1,29.94,West,263,3.1,4.0,57,0.00,,---,0.00,VWS V14.01,2013-11-09 01:27:00,
2013-11-08 18:32:00,37.8,23.9,29.94,ESE,113,0.0,0.0,57,0.00,,---,0.00,VWS V14.01,2013-11-09 01:32:00,
2013-11-08 18:37:00,37.8,24.3,29.94,ENE,63,0.0,3.1,58,0.00,,---,0.00,VWS V14.01,2013-11-09 01:37:00,
2013-11-08 18:42:00,37.8,24.3,29.94,WSW,247,3.6,3.6,58,0.00,,---,0.00,VWS V14.01,2013-11-09 01:42:00,
2013-11-08 18:47:00,37.8,24.3,29.97,SE,127,0.0,0.0,58,0.00,,---,0.00,VWS V14.01,2013-11-09 01:47:00,
2013-11-08 18:52:00,37.8,23.9,29.97,NE,44,0.0,0.0,57,0.00,,---,0.00,VWS V14.01,2013-11-09 01:52:00,
2013-11-08 18:57:00,37.9,23.7,29.97,SW,233,0.0,0.0,56,0.00,,---,0.00,VWS V14.01,2013-11-09 01:57:00,
2013-11-08 19:02:00,37.8,23.9,29.94,South,185,3.1,5.4,57,0.00,,---,0.00,VWS V14.01,2013-11-09 02:02:00,
2013-11-08 19:07:00,37.8,23.5,29.94,NW,304,0.0,0.0,56,0.00,,---,0.00,VWS V14.01,2013-11-09 02:07:00,
2013-11-08 19:12:00,37.8,23.5,29.94,WNW,291,0.0,2.7,56,0.00,,---,0.00,VWS V14.01,2013-11-09 02:12:00,
2013-11-08 19:17:00,37.6,22.9,29.97,South,173,4.0,5.4,55,0.00,,---,0.00,VWS V14.01,2013-11-09 02:17:00,
2013-11-08 19:22:00,37.6,22.9,29.97,WSW,239,6.3,7.6,55,0.00,,---,0.00,VWS V14.01,2013-11-09 02:22:00,
2013-11-08 19:27:00,37.6,22.5,29.97,SE,138,0.0,2.7,54,0.00,,---,0.00,VWS V14.01,2013-11-09 02:27:00,
2013-11-08 19:32:00,37.6,22.9,29.97,WNW,295,5.4,5.4,55,0.00,,---,0.00,VWS V14.01,2013-11-09 02:32:00,
2013-11-08 19:37:00,37.8,22.6,29.97,SSW,196,5.8,7.6,54,0.00,,---,0.00,VWS V14.01,2013-11-09 02:37:00,
2013-11-08 19:42:00,37.9,22.8,29.97,WNW,294,3.1,6.3,54,0.00,,---,0.00,VWS V14.01,2013-11-09 02:42:00,
2013-11-08 19:47:00,37.8,22.6,29.97,WNW,301,5.8,5.8,54,0.00,,---,0.00,VWS V14.01,2013-11-09 02:47:00,
2013-11-08 19:52:00,37.9,22.8,29.97,North,357,0.0,6.3,54,0.00,,---,0.00,VWS V14.01,2013-11-09 02:52:00,
2013-11-08 19:57:00,37.9,23.2,29.97,East,85,8.3,8.7,55,0.00,,---,0.00,VWS V14.01,2013-11-09 02:57:00,
2013-11-08 20:02:00,38.1,23.4,29.97,North,353,0.0,4.9,55,0.00,,---,0.00,VWS V14.01,2013-11-09 03:02:00,
2013-11-08 20:07:00,38.1,23.4,29.97,West,272,0.0,2.7,55,0.00,,---,0.00,VWS V14.01,2013-11-09 03:07:00,
2013-11-08 20:12:00,38.1,23.4,29.97,NNE,18,3.6,3.6,55,0.00,,---,0.00,VWS V14.01,2013-11-09 03:12:00,
2013-11-08 20:17:00,38.1,23.4,29.97,West,278,0.0,0.0,55,0.00,,---,0.00,VWS V14.01,2013-11-09 03:17:00,
2013-11-08 20:22:00,38.1,23.4,29.97,WSW,253,0.0,2.7,55,0.00,,---,0.00,VWS V14.01,2013-11-09 03:22:00,
2013-11-08 20:27:00,38.1,23.4,29.97,ESE,107,3.6,3.6,55,0.00,,---,0.00,VWS V14.01,2013-11-09 03:27:00,
2013-11-08 20:32:00,37.9,23.7,29.97,East,80,0.0,0.0,56,0.00,,---,0.00,VWS V14.01,2013-11-09 03:32:00,
2013-11-08 20:37:00,37.8,23.5,29.97,North,353,0.0,0.0,56,0.00,,---,0.00,VWS V14.01,2013-11-09 03:37:00,
2013-11-08 20:42:00,37.8,23.5,29.97,SW,220,6.3,6.3,56,0.00,,---,0.00,VWS V14.01,2013-11-09 03:42:00,
2013-11-08 20:47:00,37.8,23.9,30.00,SSE,160,0.0,0.0,57,0.00,,---,0.00,VWS V14.01,2013-11-09 03:47:00,
2013-11-08 20:52:00,37.6,23.7,30.00,West,263,3.1,3.6,57,0.00,,---,0.00,VWS V14.01,2013-11-09 03:52:00,
2013-11-08 20:57:00,37.4,24.0,30.00,NNE,31,0.0,3.6,58,0.00,,---,0.00,VWS V14.01,2013-11-09 03:57:00,
2013-11-08 21:02:00,37.2,24.2,30.00,West,271,4.0,4.0,59,0.00,,---,0.00,VWS V14.01,2013-11-09 04:02:00,
2013-11-08 21:07:00,37.2,23.8,30.00,WSW,241,2.7,4.0,58,0.00,,---,0.00,VWS V14.01,2013-11-09 04:07:00,
2013-11-08 21:12:00,37.2,24.2,30.00,SSW,211,0.0,3.6,59,0.00,,---,0.00,VWS V14.01,2013-11-09 04:12:00,
2013-11-08 21:17:00,37.2,24.2,30.00,SW,230,2.7,4.0,59,0.00,,---,0.00,VWS V14.01,2013-11-09 04:17:00,
2013-11-08 21:23:00,37.2,24.2,30.00,WSW,252,0.0,3.6,59,0.00,,---,0.00,VWS V14.01,2013-11-09 04:23:00,
2013-11-08 21:27:00,37.2,24.2,30.00,SW,229,0.0,5.4,59,0.00,,---,0.00,VWS V14.01,2013-11-09 04:27:00,
2013-11-08 21:33:00,37.2,24.2,30.00,WSW,252,0.0,0.0,59,0.00,,---,0.00,VWS V14.01,2013-11-09 04:33:00,
2013-11-08 21:38:00,37.2,24.2,30.00,WSW,245,0.0,0.0,59,0.00,,---,0.00,VWS V14.01,2013-11-09 04:38:00,
2013-11-08 21:43:00,37.2,24.2,30.00,SE,142,0.0,0.0,59,0.00,,---,0.00,VWS V14.01,2013-11-09 04:43:00,
2013-11-08 21:48:00,37.2,24.6,30.00,West,263,0.0,0.0,60,0.00,,---,0.00,VWS V14.01,2013-11-09 04:48:00,
2013-11-08 21:53:00,37.0,24.5,30.00,SSE,150,2.2,3.1,60,0.00,,---,0.00,VWS V14.01,2013-11-09 04:53:00,
2013-11-08 21:58:00,37.0,24.5,30.00,NE,46,0.0,0.0,60,0.00,,---,0.00,VWS V14.01,2013-11-09 04:58:00,
2013-11-08 22:01:00,37.0,24.9,30.00,NE,46,0.0,0.0,61,0.00,,---,0.00,VWS V14.01,2013-11-09 05:01:00,
2013-11-08 22:06:00,36.9,24.7,30.00,East,98,0.0,0.0,61,0.00,,---,0.00,VWS V14.01,2013-11-09 05:06:00,
2013-11-08 22:11:00,36.9,24.7,30.00,NNE,29,0.0,0.0,61,0.00,,---,0.00,VWS V14.01,2013-11-09 05:11:00,
2013-11-08 22:16:00,36.7,24.9,30.03,ESE,107,0.0,0.0,62,0.00,,---,0.00,VWS V14.01,2013-11-09 05:16:00,
2013-11-08 22:21:00,36.7,24.9,30.03,South,181,0.0,0.0,62,0.00,,---,0.00,VWS V14.01,2013-11-09 05:21:00,
2013-11-08 22:26:00,36.7,24.9,30.03,NE,36,0.0,0.0,62,0.00,,---,0.00,VWS V14.01,2013-11-09 05:26:00,
2013-11-08 22:31:00,36.7,24.9,30.03,South,188,2.7,5.4,62,0.00,,---,0.00,VWS V14.01,2013-11-09 05:31:00,
2013-11-08 22:36:00,36.5,25.1,30.03,South,171,0.0,0.0,63,0.00,,---,0.00,VWS V14.01,2013-11-09 05:36:00,
2013-11-08 22:41:00,36.5,25.1,30.03,East,95,0.0,0.0,63,0.00,,---,0.00,VWS V14.01,2013-11-09 05:41:00,
2013-11-08 22:47:00,36.5,25.1,30.03,ESE,115,0.0,0.0,63,0.00,,---,0.00,VWS V14.01,2013-11-09 05:47:00,
2013-11-08 22:52:00,36.5,25.1,30.03,ESE,115,0.0,0.0,63,0.00,,---,0.00,VWS V14.01,2013-11-09 05:52:00,
2013-11-08 22:57:00,36.5,25.5,30.03,NE,35,0.0,2.7,64,0.00,,---,0.00,VWS V14.01,2013-11-09 05:57:00,
2013-11-08 23:02:00,36.5,25.9,30.03,South,182,2.2,4.9,65,0.00,,---,0.00,VWS V14.01,2013-11-09 06:02:00,
2013-11-08 23:07:00,36.5,25.9,30.03,WNW,283,0.0,0.0,65,0.00,,---,0.00,VWS V14.01,2013-11-09 06:07:00,
2013-11-08 23:12:00,36.5,25.9,30.03,SW,214,0.0,0.0,65,0.00,,---,0.00,VWS V14.01,2013-11-09 06:12:00,
2013-11-08 23:17:00,36.7,25.7,30.03,NNE,33,0.0,3.6,64,0.00,,---,0.00,VWS V14.01,2013-11-09 06:17:00,
2013-11-08 23:22:00,36.7,26.0,30.03,NE,41,0.0,0.0,65,0.00,,---,0.00,VWS V14.01,2013-11-09 06:22:00,
2013-11-08 23:27:00,36.5,25.9,30.03,NE,41,0.0,0.0,65,0.00,,---,0.00,VWS V14.01,2013-11-09 06:27:00,
2013-11-08 23:32:00,36.3,25.7,30.03,NE,35,0.0,0.0,65,0.00,,---,0.00,VWS V14.01,2013-11-09 06:32:00,
2013-11-08 23:37:00,36.1,25.9,30.03,ENE,77,0.0,0.0,66,0.00,,---,0.00,VWS V14.01,2013-11-09 06:37:00,
2013-11-08 23:42:00,36.0,25.7,30.03,SW,236,0.0,2.7,66,0.00,,---,0.00,VWS V14.01,2013-11-09 06:42:00,
2013-11-08 23:47:00,35.8,25.5,30.03,South,179,0.0,0.0,66,0.00,,---,0.00,VWS V14.01,2013-11-09 06:47:00,
2013-11-08 23:52:00,35.4,25.6,30.03,South,179,0.0,0.0,67,0.00,,---,0.00,VWS V14.01,2013-11-09 06:52:00,
2013-11-08 23:57:00,35.4,25.6,30.03,NW,318,0.0,0.0,67,0.00,,---,0.00,VWS V14.01,2013-11-09 06:57:00,